When you browse on this site, cookies collect data to enhance your experience and personalize the content and advertising you see.
Visit our Privacy Policy to learn more. By continuing to use the site, you agree to this use of cookies and data.

Hourly Weather Sysoev

Today, 13 July, Monday

Time Temperature Precipitation Wind Pressure Humidity
00:00 +29°C° 0 mm 3 mps 754 mmHg 46%
01:00 +28°C° 0 mm 3 mps 754 mmHg 46%
02:00 +28°C° 0 mm 3 mps 754 mmHg 46%
03:00 +28°C° 0 mm 4 mps 754 mmHg 38%
04:00 +29°C° 0 mm 4 mps 754 mmHg 38%
05:00 +30°C° 0 mm 3 mps 754 mmHg 38%
06:00 +30°C° 0 mm 3 mps 753 mmHg 38%
07:00 +34°C° 0 mm 3 mps 753 mmHg 33%
08:00 +36°C° 0 mm 4 mps 753 mmHg 29%
09:00 +40°C° 0 mm 5 mps 754 mmHg 25%
10:00 +41°C° 0 mm 6 mps 753 mmHg 21%
11:00 +44°C° 0 mm 6 mps 753 mmHg 17%
12:00 +45°C° 0 mm 7 mps 752 mmHg 12%
13:00 +45°C° 0 mm 7 mps 752 mmHg 12%
14:00 +45°C° 0 mm 7 mps 752 mmHg 11%
15:00 +45°C° 0 mm 7 mps 751 mmHg 11%
16:00 +45°C° 0 mm 7 mps 751 mmHg 11%
17:00 +44°C° 0 mm 6 mps 751 mmHg 11%
18:00 +43°C° 0 mm 5 mps 750 mmHg 12%
19:00 +41°C° 0 mm 5 mps 750 mmHg 13%
20:00 +37°C° 0 mm 4 mps 751 mmHg 14%
21:00 +35°C° 0 mm 4 mps 751 mmHg 16%
22:00 +35°C° 0 mm 5 mps 751 mmHg 17%
23:00 +34°C° 0 mm 5 mps 751 mmHg 19%

Tomorrow, 14 July, Tuesday

Time Temperature Precipitation Wind Pressure Humidity
00:00 +33°C° 0 mm 6 mps 751 mmHg 21%
01:00 +33°C° 0 mm 6 mps 751 mmHg 23%
02:00 +32°C° 0 mm 5 mps 751 mmHg 26%
03:00 +32°C° 0 mm 5 mps 752 mmHg 28%
04:00 +33°C° 0 mm 5 mps 751 mmHg 27%
05:00 +33°C° 0 mm 6 mps 751 mmHg 26%
06:00 +34°C° 0 mm 6 mps 751 mmHg 25%
07:00 +37°C° 0 mm 8 mps 751 mmHg 22%
08:00 +40°C° 0 mm 9 mps 751 mmHg 19%
09:00 +43°C° 0 mm 11 mps 751 mmHg 15%
10:00 +44°C° 0 mm 11 mps 751 mmHg 14%
11:00 +46°C° 0 mm 11 mps 751 mmHg 13%
12:00 +46°C° 0 mm 11 mps 751 mmHg 12%
13:00 +45°C° 0 mm 10 mps 751 mmHg 12%
14:00 +45°C° 0 mm 9 mps 751 mmHg 12%
15:00 +45°C° 0 mm 9 mps 751 mmHg 12%
16:00 +42°C° 0 mm 9 mps 751 mmHg 21%
17:00 +38°C° 0 mm 9 mps 752 mmHg 29%
18:00 +34°C° 0 mm 9 mps 752 mmHg 38%
19:00 +33°C° 0 mm 6 mps 753 mmHg 40%
20:00 +32°C° 0 mm 4 mps 753 mmHg 43%
21:00 +30°C° 0 mm 1 mps 754 mmHg 46%
22:00 +29°C° 0.1 mm 2 mps 754 mmHg 48%
23:00 +29°C° 0.1 mm 2 mps 754 mmHg 50%

Day after tomorrow, 15 July, Wednesday

Time Temperature Precipitation Wind Pressure Humidity
00:00 +28°C° 0.1 mm 2 mps 754 mmHg 53%
01:00 +28°C° 0 mm 2 mps 754 mmHg 53%
02:00 +28°C° 0 mm 1 mps 754 mmHg 53%
03:00 +27°C° 0 mm 1 mps 754 mmHg 53%
04:00 +27°C° 0 mm 2 mps 754 mmHg 54%
05:00 +28°C° 0 mm 3 mps 754 mmHg 56%
06:00 +28°C° 0 mm 4 mps 754 mmHg 57%
07:00 +28°C° 0 mm 4 mps 754 mmHg 56%
08:00 +29°C° 0 mm 4 mps 755 mmHg 54%
09:00 +30°C° 0 mm 4 mps 755 mmHg 53%
10:00 +32°C° 0 mm 4 mps 755 mmHg 46%
11:00 +34°C° 0 mm 5 mps 755 mmHg 38%
12:00 +35°C° 0 mm 6 mps 755 mmHg 31%
13:00 +35°C° 0 mm 6 mps 755 mmHg 29%
14:00 +34°C° 0 mm 6 mps 755 mmHg 26%
15:00 +34°C° 0 mm 6 mps 755 mmHg 24%
16:00 +34°C° 0 mm 6 mps 755 mmHg 24%
17:00 +33°C° 0 mm 5 mps 755 mmHg 24%
18:00 +33°C° 0 mm 4 mps 755 mmHg 24%
19:00 +30°C° 0 mm 4 mps 756 mmHg 29%
20:00 +28°C° 0 mm 4 mps 756 mmHg 34%
21:00 +26°C° 0 mm 4 mps 756 mmHg 39%
22:00 +25°C° 0 mm 4 mps 756 mmHg 44%
23:00 +24°C° 0 mm 3 mps 757 mmHg 50%

16 July, Thursday

Time Temperature Precipitation Wind Pressure Humidity
00:00 +22°C° 0 mm 3 mps 757 mmHg 56%
01:00 +21°C° 0 mm 3 mps 757 mmHg 58%
02:00 +20°C° 0 mm 2 mps 757 mmHg 61%
03:00 +20°C° 0 mm 2 mps 757 mmHg 63%
04:00 +20°C° 0 mm 2 mps 757 mmHg 61%
05:00 +21°C° 0 mm 2 mps 757 mmHg 59%
06:00 +23°C° 0 mm 1 mps 757 mmHg 57%
07:00 +24°C° 0 mm 2 mps 757 mmHg 52%
08:00 +26°C° 0 mm 3 mps 757 mmHg 47%
09:00 +27°C° 0 mm 3 mps 756 mmHg 42%
10:00 +28°C° 0 mm 3 mps 756 mmHg 38%
11:00 +29°C° 0 mm 3 mps 756 mmHg 35%
12:00 +30°C° 0 mm 3 mps 756 mmHg 31%
13:00 +30°C° 0 mm 3 mps 756 mmHg 29%
14:00 +31°C° 0 mm 3 mps 755 mmHg 27%
15:00 +31°C° 0 mm 3 mps 755 mmHg 26%
16:00 +31°C° 0 mm 3 mps 755 mmHg 26%
17:00 +32°C° 0 mm 4 mps 755 mmHg 27%
18:00 +30°C° 0 mm 5 mps 754 mmHg 27%
19:00 +28°C° 0 mm 4 mps 755 mmHg 30%
20:00 +27°C° 0 mm 4 mps 755 mmHg 33%
21:00 +25°C° 0 mm 3 mps 755 mmHg 36%
22:00 +24°C° 0 mm 3 mps 755 mmHg 38%
23:00 +22°C° 0 mm 3 mps 755 mmHg 40%

17 July, Friday

Time Temperature Precipitation Wind Pressure Humidity
00:00 +22°C° 0 mm 3 mps 755 mmHg 42%
01:00 +21°C° 0 mm 2 mps 755 mmHg 44%
02:00 +20°C° 0 mm 2 mps 755 mmHg 47%
03:00 +20°C° 0 mm 2 mps 755 mmHg 50%
04:00 +20°C° 0 mm 2 mps 755 mmHg 52%
05:00 +20°C° 0 mm 3 mps 755 mmHg 54%
06:00 +21°C° 0 mm 4 mps 755 mmHg 57%
07:00 +22°C° 0 mm 4 mps 755 mmHg 52%
08:00 +25°C° 0 mm 4 mps 755 mmHg 47%
09:00 +26°C° 0 mm 3 mps 755 mmHg 42%
10:00 +27°C° 0 mm 4 mps 755 mmHg 38%
11:00 +28°C° 0 mm 4 mps 755 mmHg 34%
12:00 +29°C° 0 mm 4 mps 755 mmHg 30%
13:00 +30°C° 0 mm 4 mps 755 mmHg 29%
14:00 +30°C° 0 mm 5 mps 755 mmHg 28%
15:00 +32°C° 0 mm 5 mps 755 mmHg 27%
16:00 +30°C° 0 mm 5 mps 755 mmHg 29%
17:00 +29°C° 0 mm 5 mps 755 mmHg 32%
18:00 +29°C° 0 mm 5 mps 755 mmHg 34%
19:00 +27°C° 0 mm 5 mps 755 mmHg 39%
20:00 +26°C° 0 mm 4 mps 755 mmHg 44%
21:00 +25°C° 0 mm 3 mps 755 mmHg 48%
22:00 +24°C° 0 mm 3 mps 755 mmHg 52%
23:00 +22°C° 0 mm 3 mps 755 mmHg 55%

18 July, Saturday

Time Temperature Precipitation Wind Pressure Humidity
00:00 +21°C° 0 mm 3 mps 756 mmHg 58%
01:00 +21°C° 0 mm 3 mps 756 mmHg 60%
02:00 +20°C° 0 mm 3 mps 756 mmHg 63%
03:00 +20°C° 0 mm 3 mps 756 mmHg 65%
04:00 +20°C° 0 mm 3 mps 756 mmHg 64%
05:00 +21°C° 0 mm 3 mps 756 mmHg 64%
06:00 +21°C° 0 mm 3 mps 756 mmHg 63%
07:00 +24°C° 0 mm 3 mps 756 mmHg 57%
08:00 +26°C° 0 mm 3 mps 756 mmHg 50%
09:00 +27°C° 0 mm 3 mps 756 mmHg 44%
10:00 +28°C° 0 mm 4 mps 756 mmHg 41%
11:00 +29°C° 0 mm 4 mps 756 mmHg 37%
12:00 +30°C° 0 mm 4 mps 756 mmHg 34%
13:00 +30°C° 0 mm 4 mps 756 mmHg 34%
14:00 +30°C° 0 mm 4 mps 756 mmHg 34%
15:00 +30°C° 0 mm 4 mps 755 mmHg 34%
16:00 +29°C° 0 mm 5 mps 755 mmHg 35%
17:00 +29°C° 0 mm 5 mps 755 mmHg 36%
18:00 +29°C° 0 mm 5 mps 755 mmHg 36%
19:00 +27°C° 0 mm 4 mps 755 mmHg 41%
20:00 +26°C° 0 mm 3 mps 755 mmHg 46%
21:00 +24°C° 0 mm 2 mps 756 mmHg 50%
22:00 +24°C° 0 mm 3 mps 756 mmHg 52%
23:00 +22°C° 0 mm 3 mps 756 mmHg 55%
Show more